Regional Weather Roundup
Issued by NWS Charleston, WV

Home | Current Version | Previous Version | Text Only | Print | Product List | Glossary On
Versions: 1 2 3 4 5 6 7 8 9 10 11 12 13 14 15 16 17 18 19 20 21 22 23 24 25 26
000
ASUS41 KRLX 272110
RWRRLX
West Virginia Regional Weather Roundup
National Weather Service Charleston WV
500 PM EDT THU JUL 27 2017

Note: "fair" indicates few or no clouds below 12,000 feet with no
significant weather and/or obstructions to visibility.

WVZ003-272200-
Northern Panhandle of West Virginia

CITY           SKY/WX    TMP DP  RH WIND       PRES   REMARKS
WHEELING       CLOUDY    79  69  71 W3        29.91F
$$

WVZ009-272200-
Northwest West Virginia

CITY           SKY/WX    TMP DP  RH WIND       PRES   REMARKS
PARKERSBURG    RAIN      74  72  93 SW8       29.96S VSB 1
$$

WVZ006-272200-
Western West Virginia

CITY           SKY/WX    TMP DP  RH WIND       PRES   REMARKS
HUNTINGTON     CLOUDY    73  70  90 S8        29.93F
$$

WVZ015-272200-
West Central West Virginia

CITY           SKY/WX    TMP DP  RH WIND       PRES   REMARKS
CHARLESTON     LGT RAIN  73  70  90 W5        29.98R FOG
$$

WVZ022-031-272200-
North Central West Virginia

CITY           SKY/WX    TMP DP  RH WIND       PRES   REMARKS
CLARKSBURG     LGT RAIN  72  67  84 SW9       29.95F
MORGANTOWN     CLOUDY    81  70  69 S10       29.93S
$$

WVZ025-035-042-045-272200-
Southern West Virginia

CITY           SKY/WX    TMP DP  RH WIND       PRES   REMARKS
BECKLEY        CLOUDY    70  67  90 S6        30.05F
LOGAN          LGT RAIN  70  70 100 CALM      30.00F
BLUEFIELD      LGT RAIN  68  65  90 W7        30.08F
LEWISBURG      CLOUDY    70  65  84 W5        30.03F
$$

WVZ047-272200-
Northern Mountains of West Virginia

CITY           SKY/WX    TMP DP  RH WIND       PRES   REMARKS
ELKINS         RAIN      71  65  81 S5        30.02R
$$

WVZ052-272200-
Eastern Panhandle of West Virginia

CITY           SKY/WX    TMP DP  RH WIND       PRES   REMARKS
MARTINSBURG    MOSUNNY   84  69  60 E3        29.88F
PETERSBURG     CLOUDY    86  70  58 W9        29.89F
$$




USA.gov is the U.S. government's official web portal to all federal, state and local government web resources and services.